| time (UTC) | temp F | wind direction | speed MPH | gust MPH | rain 1hr in | rain 24hr in | rain mn in | humidity % | barometer mb |
| 20260831060559 | 83 | 0 | 0.0 | 4.0 | 0.00 | 0.00 | 0.00 | 80 | 1016.0 |
| 20260831060113 | 83 | 0 | 1.0 | 4.0 | 0.00 | 0.00 | 0.00 | 80 | 1016.1 |
| 20260831055600 | 83 | 94 | 0.0 | 3.0 | 0.00 | 0.00 | 0.00 | 80 | 1016.2 |
| 20260831055057 | 83 | 0 | 0.0 | 3.0 | 0.00 | 0.00 | 0.00 | 80 | 1016.3 |
| 20260831054605 | 83 | 0 | 0.0 | 4.0 | 0.00 | 0.00 | 0.00 | 80 | 1016.4 |
| 20260831054059 | 83 | 0 | 1.0 | 5.0 | 0.00 | 0.00 | 0.00 | 80 | 1016.5 |
| 20260831053558 | 83 | 0 | 1.0 | 5.0 | 0.00 | 0.00 | 0.00 | 80 | 1016.6 |
| 20260831053127 | 82 | 52 | 0.0 | 5.0 | 0.00 | 0.00 | 0.00 | 80 | 1016.6 |
| 20260831052559 | 82 | 0 | 0.0 | 2.0 | 0.00 | 0.00 | 0.00 | 80 | 1016.7 |
| 20260831052101 | 82 | 0 | 0.0 | 3.0 | 0.00 | 0.00 | 0.00 | 80 | 1016.9 |
| 20260831051605 | 82 | 134 | 0.0 | 3.0 | 0.00 | 0.00 | 0.00 | 80 | 1016.8 |
| 20260831051059 | 82 | 115 | 1.0 | 5.0 | 0.00 | 0.00 | 0.00 | 80 | 1016.9 |
| 20260831050559 | 82 | 0 | 0.0 | 6.0 | 0.00 | 0.00 | 0.00 | 80 | 1017.0 |
| 20260831050124 | 82 | 67 | 2.0 | 6.0 | 0.00 | 0.00 | 0.00 | 81 | 1016.9 |
| 20260831045557 | 82 | 0 | 0.0 | 5.0 | 0.00 | 0.00 | 0.00 | 81 | 1017.0 |
| 20260831045058 | 82 | 83 | 0.0 | 6.0 | 0.00 | 0.00 | 0.00 | 81 | 1017.1 |
| 20260831044602 | 82 | 77 | 0.0 | 6.0 | 0.00 | 0.00 | 0.00 | 81 | 1017.0 |
| 20260831044059 | 82 | 105 | 1.0 | 6.0 | 0.00 | 0.00 | 0.00 | 81 | 1017.0 |
| 20260831043557 | 82 | 0 | 0.0 | 6.0 | 0.00 | 0.00 | 0.00 | 81 | 1017.0 |
| 20260831043108 | 82 | 44 | 0.0 | 6.0 | 0.00 | 0.00 | 0.00 | 81 | 1017.0 |
| 20260831042600 | 82 | 0 | 1.0 | 6.0 | 0.00 | 0.00 | 0.00 | 81 | 1017.1 |
| 20260831042103 | 82 | 0 | 0.0 | 2.0 | 0.00 | 0.00 | 0.00 | 81 | 1017.1 |
| 20260831041620 | 82 | 0 | 0.0 | 3.0 | 0.00 | 0.00 | 0.00 | 81 | 1017.2 |
| 20260831041058 | 82 | 0 | 0.0 | 3.0 | 0.00 | 0.00 | 0.00 | 81 | 1017.2 |
| 20260831040600 | 82 | 0 | 0.0 | 3.0 | 0.00 | 0.00 | 0.00 | 81 | 1017.2 |
| 20260831040114 | 82 | 0 | 0.0 | 5.0 | 0.00 | 0.00 | 0.00 | 81 | 1017.2 |
| 20260831035558 | 82 | 63 | 1.0 | 5.0 | 0.00 | 0.00 | 0.00 | 81 | 1017.3 |
| 20260831035058 | 82 | 88 | 1.0 | 5.0 | 0.00 | 0.00 | 0.00 | 81 | 1017.2 |
| 20260831034609 | 82 | 0 | 1.0 | 5.0 | 0.00 | 0.00 | 0.00 | 81 | 1017.3 |
| 20260831034104 | 82 | 128 | 0.0 | 5.0 | 0.00 | 0.00 | 0.00 | 81 | 1017.3 |
| 20260831033600 | 82 | 86 | 2.0 | 5.0 | 0.00 | 0.00 | 0.00 | 80 | 1017.2 |
| 20260831033113 | 82 | 106 | 2.0 | 6.0 | 0.00 | 0.00 | 0.00 | 80 | 1017.3 |
| 20260831032557 | 82 | 0 | 0.0 | 6.0 | 0.00 | 0.00 | 0.00 | 80 | 1017.2 |
| 20260831032100 | 82 | 0 | 1.0 | 8.0 | 0.00 | 0.00 | 0.00 | 80 | 1017.3 |
| 20260831031615 | 82 | 0 | 1.0 | 8.0 | 0.00 | 0.00 | 0.00 | 80 | 1017.3 |
| 20260831031059 | 82 | 105 | 1.0 | 5.0 | 0.00 | 0.00 | 0.00 | 79 | 1017.2 |
| 20260831030559 | 82 | 98 | 2.0 | 7.0 | 0.00 | 0.00 | 0.00 | 79 | 1017.1 |
| 20260831030109 | 82 | 105 | 1.0 | 7.0 | 0.00 | 0.00 | 0.00 | 79 | 1017.3 |
| 20260831025557 | 82 | 51 | 2.0 | 8.0 | 0.00 | 0.00 | 0.00 | 79 | 1017.3 |
| 20260831025058 | 82 | 92 | 1.0 | 8.0 | 0.00 | 0.00 | 0.00 | 79 | 1017.3 |
| 20260831024607 | 82 | 115 | 2.0 | 8.0 | 0.00 | 0.00 | 0.00 | 79 | 1017.3 |
| 20260831024057 | 82 | 88 | 1.0 | 6.0 | 0.00 | 0.00 | 0.00 | 79 | 1017.2 |
| 20260831023555 | 82 | 31 | 1.0 | 7.0 | 0.00 | 0.00 | 0.00 | 80 | 1017.3 |
| 20260831023105 | 82 | 100 | 3.0 | 7.0 | 0.00 | 0.00 | 0.00 | 80 | 1017.4 |
| 20260831022559 | 82 | 71 | 0.0 | 5.0 | 0.00 | 0.00 | 0.00 | 80 | 1017.3 |
| 20260831022100 | 82 | 103 | 1.0 | 5.0 | 0.00 | 0.00 | 0.00 | 80 | 1017.2 |
| 20260831021605 | 82 | 0 | 1.0 | 5.0 | 0.00 | 0.00 | 0.00 | 81 | 1017.2 |
| 20260831021058 | 82 | 44 | 0.0 | 6.0 | 0.00 | 0.00 | 0.00 | 81 | 1017.2 |
| 20260831020600 | 82 | 0 | 0.0 | 6.0 | 0.00 | 0.00 | 0.00 | 81 | 1017.2 |
| 20260831020104 | 82 | 96 | 2.0 | 5.0 | 0.00 | 0.00 | 0.00 | 81 | 1017.1 |
| 20260831015557 | 81 | 0 | 1.0 | 7.0 | 0.00 | 0.00 | 0.00 | 80 | 1017.1 |
| 20260831015057 | 81 | 149 | 1.0 | 7.0 | 0.00 | 0.00 | 0.00 | 80 | 1017.2 |
| 20260831014606 | 81 | 70 | 1.0 | 6.0 | 0.00 | 0.00 | 0.00 | 80 | 1017.3 |
| 20260831014057 | 81 | 34 | 1.0 | 6.0 | 0.00 | 0.00 | 0.00 | 80 | 1017.2 |
| 20260831013557 | 81 | 0 | 0.0 | 3.0 | 0.00 | 0.00 | 0.00 | 81 | 1017.2 |
| 20260831013106 | 81 | 45 | 1.0 | 6.0 | 0.00 | 0.00 | 0.00 | 80 | 1017.2 |
| 20260831012557 | 81 | 0 | 2.0 | 6.0 | 0.00 | 0.00 | 0.00 | 80 | 1017.1 |
| 20260831012057 | 81 | 0 | 0.0 | 5.0 | 0.00 | 0.00 | 0.00 | 81 | 1017.2 |
| 20260831011604 | 81 | 82 | 2.0 | 9.0 | 0.00 | 0.00 | 0.00 | 80 | 1017.3 |
| 20260831011057 | 81 | 45 | 3.0 | 9.0 | 0.00 | 0.00 | 0.00 | 80 | 1017.2 |
| 20260831010556 | 81 | 29 | 3.0 | 9.0 | 0.00 | 0.00 | 0.00 | 80 | 1017.3 |
| 20260831010113 | 81 | 46 | 4.0 | 9.0 | 0.00 | 0.00 | 0.00 | 80 | 1017.4 |
| 20260831005600 | 81 | 340 | 2.0 | 9.0 | 0.00 | 0.00 | 0.00 | 80 | 1017.2 |
| 20260831005100 | 81 | 74 | 2.0 | 8.0 | 0.00 | 0.00 | 0.00 | 80 | 1017.3 |
| 20260831004608 | 81 | 74 | 1.0 | 4.0 | 0.00 | 0.00 | 0.00 | 79 | 1017.3 |
| 20260831004100 | 81 | 360 | 1.0 | 5.0 | 0.00 | 0.00 | 0.00 | 79 | 1017.2 |
| 20260831003558 | 81 | 5 | 0.0 | 5.0 | 0.00 | 0.00 | 0.00 | 78 | 1017.1 |
| 20260831003111 | 81 | 352 | 2.0 | 5.0 | 0.00 | 0.00 | 0.00 | 78 | 1017.1 |
| 20260831002557 | 81 | 5 | 3.0 | 5.0 | 0.00 | 0.00 | 0.00 | 78 | 1017.0 |
| 20260831002056 | 81 | 67 | 2.0 | 5.0 | 0.00 | 0.00 | 0.00 | 78 | 1017.0 |
| 20260831001600 | 81 | 0 | 0.0 | 8.0 | 0.00 | 0.00 | 0.00 | 78 | 1017.0 |
| 20260831001100 | 81 | 0 | 2.0 | 9.0 | 0.00 | 0.00 | 0.00 | 78 | 1017.1 |
| 20260831000557 | 81 | 24 | 2.0 | 9.0 | 0.00 | 0.00 | 0.00 | 78 | 1017.0 |
| 20260831000109 | 81 | 338 | 2.0 | 8.0 | 0.00 | 0.00 | 0.00 | 78 | 1017.0 |
| 20260830235556 | 81 | 5 | 3.0 | 7.0 | 0.00 | 0.00 | 0.00 | 78 | 1016.8 |
| 20260830235056 | 81 | 59 | 2.0 | 9.0 | 0.00 | 0.00 | 0.00 | 79 | 1016.8 |
| 20260830234609 | 81 | 346 | 2.0 | 9.0 | 0.00 | 0.00 | 0.00 | 79 | 1016.6 |
| 20260830234057 | 81 | 87 | 3.0 | 9.0 | 0.00 | 0.00 | 0.00 | 79 | 1016.7 |
| 20260830233557 | 81 | 28 | 3.0 | 8.0 | 0.00 | 0.00 | 0.00 | 79 | 1016.6 |
| 20260830233103 | 81 | 342 | 2.0 | 8.0 | 0.00 | 0.00 | 0.00 | 79 | 1016.3 |
| 20260830232557 | 81 | 22 | 2.0 | 8.0 | 0.00 | 0.00 | 0.00 | 79 | 1016.4 |
| 20260830232056 | 80 | 80 | 1.0 | 5.0 | 0.00 | 0.00 | 0.00 | 80 | 1016.6 |
| 20260830231626 | 80 | 12 | 1.0 | 7.0 | 0.00 | 0.00 | 0.00 | 80 | 1016.6 |
| 20260830231057 | 80 | 0 | 3.0 | 7.0 | 0.00 | 0.00 | 0.00 | 80 | 1016.5 |
| 20260830230557 | 80 | 352 | 2.0 | 5.0 | 0.00 | 0.00 | 0.00 | 80 | 1016.5 |
| 20260830230110 | 81 | 0 | 1.0 | 4.0 | 0.00 | 0.00 | 0.00 | 81 | 1016.2 |
| 20260830225557 | 81 | 0 | 0.0 | 5.0 | 0.00 | 0.00 | 0.00 | 80 | 1016.1 |
| 20260830225102 | 81 | 0 | 0.0 | 5.0 | 0.00 | 0.00 | 0.00 | 80 | 1016.2 |
| 20260830224608 | 81 | 24 | 1.0 | 3.0 | 0.00 | 0.00 | 0.00 | 80 | 1016.2 |
| 20260830224057 | 81 | 0 | 0.0 | 3.0 | 0.00 | 0.00 | 0.00 | 79 | 1016.3 |
| 20260830223558 | 81 | 0 | 0.0 | 2.0 | 0.00 | 0.00 | 0.00 | 79 | 1016.5 |
| 20260830223101 | 81 | 0 | 0.0 | 2.0 | 0.00 | 0.00 | 0.00 | 79 | 1016.6 |
| 20260830222558 | 82 | 0 | 0.0 | 6.0 | 0.00 | 0.00 | 0.00 | 78 | 1016.7 |
| 20260830222056 | 82 | 0 | 0.0 | 7.0 | 0.00 | 0.00 | 0.00 | 77 | 1016.7 |
| 20260830221605 | 82 | 352 | 2.0 | 7.0 | 0.00 | 0.00 | 0.00 | 76 | 1016.8 |
| 20260830221058 | 83 | 226 | 0.0 | 7.0 | 0.00 | 0.00 | 0.00 | 75 | 1017.0 |
| 20260830220558 | 83 | 229 | 2.0 | 7.0 | 0.00 | 0.00 | 0.00 | 74 | 1017.1 |
| 20260830220107 | 83 | 279 | 1.0 | 4.0 | 0.00 | 0.00 | 0.00 | 74 | 1017.3 |
| 20260830215559 | 84 | 0 | 1.0 | 6.0 | 0.00 | 0.00 | 0.00 | 73 | 1017.2 |
| 20260830215056 | 84 | 0 | 1.0 | 10.0 | 0.00 | 0.00 | 0.00 | 72 | 1016.9 |
| 20260830214602 | 84 | 277 | 3.0 | 10.0 | 0.00 | 0.00 | 0.00 | 71 | 1016.8 |
| 20260830214058 | 85 | 265 | 5.0 | 10.0 | 0.00 | 0.00 | 0.00 | 70 | 1016.6 |
| 20260830213559 | 87 | 255 | 1.0 | 6.0 | 0.00 | 0.00 | 0.00 | 72 | 1016.6 |
| 20260830213118 | 87 | 0 | 0.0 | 7.0 | 0.00 | 0.00 | 0.00 | 72 | 1016.5 |
| 20260830212600 | 87 | 65 | 2.0 | 7.0 | 0.00 | 0.00 | 0.00 | 71 | 1016.6 |
| 20260830212100 | 87 | 85 | 3.0 | 7.0 | 0.00 | 0.00 | 0.00 | 71 | 1016.5 |
| 20260830211606 | 88 | 61 | 0.0 | 8.0 | 0.00 | 0.00 | 0.00 | 71 | 1016.3 |
| 20260830211057 | 88 | 0 | 2.0 | 8.0 | 0.00 | 0.00 | 0.00 | 71 | 1016.1 |
| 20260830210557 | 89 | 129 | 3.0 | 10.0 | 0.00 | 0.00 | 0.00 | 69 | 1016.1 |
| 20260830210141 | 89 | 103 | 3.0 | 10.0 | 0.00 | 0.00 | 0.00 | 68 | 1016.3 |
| 20260830205556 | 90 | 126 | 4.0 | 9.0 | 0.00 | 0.00 | 0.00 | 66 | 1016.4 |
| 20260830205101 | 90 | 60 | 1.0 | 9.0 | 0.00 | 0.00 | 0.00 | 66 | 1016.2 |
| 20260830204612 | 89 | 65 | 3.0 | 11.0 | 0.00 | 0.00 | 0.00 | 65 | 1015.9 |
| 20260830204100 | 90 | 109 | 3.0 | 11.0 | 0.00 | 0.00 | 0.00 | 65 | 1016.0 |
| 20260830203600 | 90 | 115 | 4.0 | 10.0 | 0.00 | 0.00 | 0.00 | 65 | 1016.2 |
| 20260830203107 | 92 | 108 | 4.0 | 8.0 | 0.00 | 0.00 | 0.00 | 63 | 1016.4 |
| 20260830202600 | 93 | 0 | 0.0 | 6.0 | 0.00 | 0.00 | 0.00 | 67 | 1016.4 |
| 20260830202057 | 92 | 294 | 1.0 | 7.0 | 0.00 | 0.00 | 0.00 | 68 | 1016.4 |
| 20260830201603 | 92 | 63 | 1.0 | 7.0 | 0.00 | 0.00 | 0.00 | 66 | 1016.4 |
| 20260830201056 | 92 | 180 | 1.0 | 6.0 | 0.00 | 0.00 | 0.00 | 67 | 1016.4 |
| 20260830200557 | 92 | 0 | 2.0 | 7.0 | 0.00 | 0.00 | 0.00 | 67 | 1016.4 |
| 20260830200115 | 91 | 0 | 0.0 | 7.0 | 0.00 | 0.00 | 0.00 | 67 | 1016.3 |
| 20260830195559 | 92 | 0 | 0.0 | 4.0 | 0.00 | 0.01 | 0.00 | 65 | 1016.3 |
| 20260830195059 | 92 | 113 | 1.0 | 6.0 | 0.00 | 0.01 | 0.00 | 65 | 1016.4 |
| 20260830194653 | 91 | 0 | 0.0 | 8.0 | 0.00 | 0.01 | 0.00 | 68 | 1016.5 |
| 20260830194057 | 89 | 0 | 2.0 | 8.0 | 0.00 | 0.01 | 0.00 | 68 | 1016.5 |
| 20260830193559 | 89 | 0 | 1.0 | 8.0 | 0.00 | 0.01 | 0.00 | 69 | 1016.6 |
| 20260830193107 | 89 | 106 | 3.0 | 9.0 | 0.00 | 0.01 | 0.00 | 69 | 1016.8 |
| 20260830192557 | 90 | 0 | 1.0 | 9.0 | 0.00 | 0.01 | 0.00 | 70 | 1016.7 |
| 20260830192057 | 90 | 123 | 2.0 | 7.0 | 0.00 | 0.01 | 0.00 | 69 | 1016.6 |
| 20260830191608 | 90 | 64 | 3.0 | 7.0 | 0.00 | 0.01 | 0.00 | 69 | 1016.6 |
| 20260830191057 | 92 | 76 | 2.0 | 10.0 | 0.00 | 0.01 | 0.00 | 68 | 1016.7 |
| 20260830190559 | 92 | 142 | 1.0 | 10.0 | 0.00 | 0.01 | 0.00 | 69 | 1016.6 |
| 20260830185557 | 92 | 97 | 2.0 | 10.0 | 0.00 | 0.05 | 0.00 | 66 | 1016.6 |
| 20260830185057 | 92 | 5 | 3.0 | 10.0 | 0.00 | 0.05 | 0.00 | 67 | 1016.5 |
| 20260830184614 | 92 | 80 | 4.0 | 9.0 | 0.00 | 0.05 | 0.00 | 66 | 1016.6 |
| 20260830184056 | 92 | 0 | 4.0 | 9.0 | 0.00 | 0.05 | 0.00 | 67 | 1016.7 |
| 20260830183600 | 93 | 84 | 2.0 | 8.0 | 0.00 | 0.05 | 0.00 | 65 | 1016.7 |
| 20260830183118 | 93 | 63 | 1.0 | 8.0 | 0.00 | 0.05 | 0.00 | 65 | 1016.8 |
| 20260830182601 | 93 | 150 | 2.0 | 9.0 | 0.00 | 0.05 | 0.00 | 65 | 1017.1 |
| 20260830182058 | 93 | 104 | 2.0 | 9.0 | 0.00 | 0.05 | 0.00 | 64 | 1017.1 |
| 20260830181604 | 93 | 257 | 2.0 | 9.0 | 0.00 | 0.05 | 0.00 | 64 | 1017.1 |
| 20260830181101 | 93 | 88 | 2.0 | 9.0 | 0.00 | 0.05 | 0.00 | 64 | 1017.2 |
| 20260830180558 | 93 | 109 | 0.0 | 11.0 | 0.00 | 0.05 | 0.00 | 66 | 1017.3 |
| 20260830180108 | 92 | 36 | 2.0 | 11.0 | 0.00 | 0.05 | 0.00 | 65 | 1017.3 |
| 20260830175558 | 91 | 24 | 3.0 | 11.0 | 0.00 | 0.16 | 0.00 | 66 | 1017.3 |
| 20260830175059 | 92 | 0 | 3.0 | 10.0 | 0.00 | 0.16 | 0.00 | 65 | 1017.4 |
| 20260830174607 | 92 | 0 | 4.0 | 10.0 | 0.00 | 0.16 | 0.00 | 64 | 1017.4 |
| 20260830174100 | 93 | 128 | 2.0 | 8.0 | 0.00 | 0.16 | 0.00 | 65 | 1017.3 |
| 20260830173600 | 93 | 115 | 1.0 | 10.0 | 0.00 | 0.16 | 0.00 | 67 | 1017.4 |
| 20260830173135 | 92 | 299 | 2.0 | 10.0 | 0.00 | 0.16 | 0.00 | 68 | 1017.4 |
| 20260830172557 | 92 | 0 | 2.0 | 9.0 | 0.00 | 0.16 | 0.00 | 67 | 1017.4 |
| 20260830172058 | 92 | 114 | 1.0 | 9.0 | 0.00 | 0.16 | 0.00 | 67 | 1017.4 |
| 20260830171615 | 91 | 167 | 1.0 | 10.0 | 0.00 | 0.16 | 0.00 | 68 | 1017.6 |
| 20260830171057 | 91 | 155 | 4.0 | 10.0 | 0.00 | 0.16 | 0.00 | 68 | 1017.9 |
| 20260830170559 | 91 | 65 | 3.0 | 10.0 | 0.00 | 0.16 | 0.00 | 67 | 1018.0 |
| 20260830170111 | 91 | 117 | 3.0 | 10.0 | 0.00 | 0.16 | 0.00 | 67 | 1018.0 |
| 20260830165557 | 91 | 117 | 2.0 | 11.0 | 0.00 | 0.18 | 0.00 | 66 | 1018.0 |
| 20260830165057 | 91 | 71 | 4.0 | 11.0 | 0.00 | 0.18 | 0.00 | 67 | 1018.0 |
| 20260830164603 | 91 | 57 | 4.0 | 10.0 | 0.00 | 0.18 | 0.00 | 67 | 1018.0 |
| 20260830164057 | 92 | 103 | 2.0 | 8.0 | 0.00 | 0.18 | 0.00 | 65 | 1018.1 |
| 20260830163557 | 92 | 208 | 2.0 | 7.0 | 0.00 | 0.18 | 0.00 | 66 | 1018.2 |
| 20260830163110 | 91 | 0 | 1.0 | 8.0 | 0.00 | 0.18 | 0.00 | 67 | 1018.2 |
| 20260830162600 | 91 | 88 | 2.0 | 9.0 | 0.00 | 0.18 | 0.00 | 66 | 1018.1 |
| 20260830162057 | 90 | 338 | 1.0 | 9.0 | 0.00 | 0.18 | 0.00 | 67 | 1018.1 |
| 20260830161627 | 90 | 111 | 1.0 | 9.0 | 0.00 | 0.18 | 0.00 | 66 | 1018.1 |
| 20260830161056 | 90 | 104 | 0.0 | 6.0 | 0.00 | 0.18 | 0.00 | 67 | 1018.3 |
| 20260830160559 | 90 | 111 | 2.0 | 7.0 | 0.00 | 0.18 | 0.00 | 68 | 1018.3 |
| 20260830155559 | 89 | 125 | 2.0 | 8.0 | 0.00 | 0.20 | 0.00 | 69 | 1018.4 |
| 20260830155100 | 88 | 65 | 3.0 | 8.0 | 0.00 | 0.20 | 0.00 | 68 | 1018.5 |
| 20260830154607 | 89 | 84 | 3.0 | 10.0 | 0.00 | 0.20 | 0.00 | 68 | 1018.6 |
| 20260830154100 | 89 | 74 | 2.0 | 10.0 | 0.00 | 0.20 | 0.00 | 69 | 1018.8 |
| 20260830153600 | 90 | 60 | 4.0 | 9.0 | 0.00 | 0.20 | 0.00 | 68 | 1018.8 |
| 20260830153109 | 90 | 89 | 2.0 | 9.0 | 0.00 | 0.20 | 0.00 | 69 | 1018.8 |
| 20260830152601 | 90 | 200 | 2.0 | 9.0 | 0.00 | 0.20 | 0.00 | 70 | 1018.9 |
| 20260830152100 | 90 | 256 | 2.0 | 8.0 | 0.00 | 0.20 | 0.00 | 70 | 1018.7 |
| 20260830151602 | 89 | 169 | 1.0 | 7.0 | 0.00 | 0.20 | 0.00 | 71 | 1018.6 |
| 20260830151100 | 89 | 213 | 0.0 | 5.0 | 0.00 | 0.20 | 0.00 | 72 | 1018.6 |
| 20260830150600 | 88 | 193 | 1.0 | 7.0 | 0.00 | 0.20 | 0.00 | 73 | 1018.6 |
| 20260830150118 | 88 | 177 | 0.0 | 7.0 | 0.00 | 0.20 | 0.00 | 74 | 1018.6 |
| 20260830145604 | 87 | 192 | 0.0 | 8.0 | 0.00 | 0.20 | 0.00 | 74 | 1018.5 |
| 20260830145104 | 87 | 0 | 2.0 | 8.0 | 0.00 | 0.20 | 0.00 | 73 | 1018.6 |
| 20260830144604 | 87 | 63 | 1.0 | 7.0 | 0.00 | 0.20 | 0.00 | 74 | 1018.5 |
| 20260830144100 | 87 | 128 | 0.0 | 3.0 | 0.00 | 0.20 | 0.00 | 75 | 1018.5 |
| 20260830143603 | 87 | 65 | 0.0 | 3.0 | 0.00 | 0.20 | 0.00 | 74 | 1018.7 |
| 20260830143107 | 87 | 168 | 1.0 | 7.0 | 0.00 | 0.20 | 0.00 | 74 | 1018.6 |
| 20260830142602 | 87 | 0 | 1.0 | 8.0 | 0.00 | 0.20 | 0.00 | 73 | 1018.7 |
| 20260830142059 | 88 | 140 | 1.0 | 8.0 | 0.00 | 0.20 | 0.00 | 72 | 1018.6 |
| 20260830141604 | 89 | 84 | 1.0 | 9.0 | 0.00 | 0.20 | 0.00 | 71 | 1018.6 |
| 20260830141100 | 89 | 128 | 1.0 | 9.0 | 0.00 | 0.20 | 0.00 | 71 | 1018.4 |
| 20260830140559 | 89 | 0 | 1.0 | 7.0 | 0.00 | 0.20 | 0.00 | 70 | 1018.3 |
| 20260830135600 | 89 | 123 | 2.0 | 8.0 | 0.00 | 0.25 | 0.00 | 71 | 1018.4 |
| 20260830135101 | 89 | 0 | 1.0 | 9.0 | 0.00 | 0.25 | 0.00 | 71 | 1018.3 |
| 20260830134606 | 89 | 0 | 2.0 | 9.0 | 0.00 | 0.25 | 0.00 | 72 | 1018.3 |
| 20260830134100 | 88 | 224 | 1.0 | 5.0 | 0.00 | 0.25 | 0.00 | 73 | 1018.2 |
| 20260830133603 | 88 | 0 | 1.0 | 9.0 | 0.00 | 0.25 | 0.00 | 73 | 1018.1 |
| 20260830133102 | 88 | 0 | 1.0 | 9.0 | 0.00 | 0.25 | 0.00 | 74 | 1018.2 |
| 20260830132601 | 87 | 111 | 0.0 | 3.0 | 0.00 | 0.25 | 0.00 | 75 | 1018.1 |
| 20260830132101 | 87 | 0 | 0.0 | 4.0 | 0.00 | 0.25 | 0.00 | 75 | 1018.1 |
| 20260830131632 | 87 | 0 | 0.0 | 6.0 | 0.00 | 0.25 | 0.00 | 75 | 1018.0 |
| 20260830131101 | 87 | 0 | 1.0 | 7.0 | 0.00 | 0.25 | 0.00 | 75 | 1017.9 |
| 20260830130601 | 86 | 88 | 1.0 | 7.0 | 0.00 | 0.25 | 0.00 | 76 | 1017.8 |
| 20260830130105 | 86 | 0 | 0.0 | 6.0 | 0.00 | 0.25 | 0.00 | 76 | 1017.9 |
| 20260830125557 | 85 | 0 | 0.0 | 3.0 | 0.00 | 0.64 | 0.00 | 77 | 1017.9 |
| 20260830125059 | 85 | 0 | 0.0 | 4.0 | 0.00 | 0.64 | 0.00 | 77 | 1017.9 |
| 20260830124606 | 85 | 0 | 1.0 | 8.0 | 0.00 | 0.64 | 0.00 | 77 | 1018.0 |
| 20260830124058 | 84 | 0 | 0.0 | 8.0 | 0.00 | 0.64 | 0.00 | 78 | 1018.0 |
| 20260830123600 | 84 | 57 | 0.0 | 6.0 | 0.00 | 0.64 | 0.00 | 78 | 1018.0 |
| 20260830123123 | 84 | 160 | 1.0 | 6.0 | 0.00 | 0.64 | 0.00 | 79 | 1018.0 |
| 20260830122557 | 83 | 0 | 0.0 | 6.0 | 0.00 | 0.64 | 0.00 | 79 | 1018.0 |
| 20260830122057 | 83 | 0 | 0.0 | 6.0 | 0.00 | 0.64 | 0.00 | 79 | 1017.9 |
| 20260830121601 | 83 | 0 | 1.0 | 6.0 | 0.00 | 0.64 | 0.00 | 79 | 1017.9 |
| 20260830121058 | 83 | 0 | 0.0 | 3.0 | 0.00 | 0.64 | 0.00 | 80 | 1017.7 |
| 20260830120557 | 82 | 0 | 0.0 | 4.0 | 0.00 | 0.64 | 0.00 | 80 | 1017.6 |
| 20260830120106 | 82 | 0 | 0.0 | 4.0 | 0.00 | 0.64 | 0.00 | 80 | 1017.6 |
| 20260830115559 | 82 | 105 | 0.0 | 5.0 | 0.00 | 0.76 | 0.00 | 80 | 1017.6 |
| 20260830115058 | 82 | 94 | 0.0 | 5.0 | 0.00 | 0.76 | 0.00 | 80 | 1017.6 |
| 20260830114611 | 82 | 101 | 0.0 | 5.0 | 0.00 | 0.76 | 0.00 | 80 | 1017.6 |
| 20260830114058 | 81 | 136 | 0.0 | 1.0 | 0.00 | 0.76 | 0.00 | 80 | 1017.4 |
| 20260830113556 | 81 | 0 | 0.0 | 1.0 | 0.00 | 0.76 | 0.00 | 80 | 1017.3 |
| 20260830113100 | 81 | 119 | 0.0 | 1.0 | 0.00 | 0.76 | 0.00 | 80 | 1017.2 |
| 20260830112557 | 81 | 0 | 0.0 | 3.0 | 0.00 | 0.76 | 0.00 | 80 | 1017.0 |
| 20260830112058 | 81 | 0 | 0.0 | 3.0 | 0.00 | 0.76 | 0.00 | 80 | 1017.1 |
| 20260830111607 | 81 | 0 | 0.0 | 1.0 | 0.00 | 0.76 | 0.00 | 80 | 1016.9 |
| 20260830111102 | 81 | 0 | 0.0 | 2.0 | 0.00 | 0.76 | 0.00 | 81 | 1016.9 |
| 20260830110557 | 82 | 0 | 0.0 | 2.0 | 0.00 | 0.76 | 0.00 | 80 | 1016.8 |
| 20260830110109 | 82 | 0 | 0.0 | 2.0 | 0.00 | 0.76 | 0.00 | 81 | 1016.7 |
| 20260830105558 | 82 | 0 | 0.0 | 4.0 | 0.00 | 0.76 | 0.00 | 80 | 1016.7 |
| 20260830105057 | 82 | 0 | 0.0 | 4.0 | 0.00 | 0.76 | 0.00 | 80 | 1016.5 |
| 20260830104621 | 82 | 219 | 0.0 | 0.0 | 0.00 | 0.76 | 0.00 | 80 | 1016.3 |
| 20260830104101 | 82 | 0 | 0.0 | 1.0 | 0.00 | 0.76 | 0.00 | 80 | 1016.2 |
| 20260830103557 | 82 | 0 | 0.0 | 4.0 | 0.00 | 0.76 | 0.00 | 80 | 1016.1 |
| 20260830103105 | 82 | 0 | 0.0 | 4.0 | 0.00 | 0.76 | 0.00 | 80 | 1016.0 |
| 20260830102601 | 82 | 0 | 1.0 | 4.0 | 0.00 | 0.76 | 0.00 | 80 | 1016.0 |
| 20260830102057 | 82 | 0 | 0.0 | 3.0 | 0.00 | 0.76 | 0.00 | 80 | 1015.9 |
| 20260830101603 | 82 | 0 | 0.0 | 3.0 | 0.00 | 0.76 | 0.00 | 80 | 1015.9 |
| 20260830101057 | 82 | 0 | 0.0 | 10.0 | 0.00 | 0.76 | 0.00 | 80 | 1016.1 |
| 20260830100559 | 82 | 0 | 0.0 | 10.0 | 0.00 | 0.76 | 0.00 | 80 | 1016.0 |
| 20260830100107 | 82 | 92 | 0.0 | 4.0 | 0.00 | 0.76 | 0.00 | 80 | 1015.9 |
| 20260830095558 | 82 | 0 | 0.0 | 4.0 | 0.00 | 0.76 | 0.00 | 80 | 1015.9 |
| 20260830095058 | 82 | 0 | 0.0 | 7.0 | 0.00 | 0.76 | 0.00 | 80 | 1015.8 |
| 20260830094605 | 82 | 0 | 0.0 | 7.0 | 0.00 | 0.76 | 0.00 | 80 | 1015.8 |
| 20260830094059 | 82 | 0 | 0.0 | 7.0 | 0.00 | 0.76 | 0.00 | 80 | 1015.8 |
| 20260830093557 | 82 | 0 | 0.0 | 5.0 | 0.00 | 0.76 | 0.00 | 80 | 1015.9 |
| 20260830093107 | 82 | 0 | 0.0 | 5.0 | 0.00 | 0.76 | 0.00 | 80 | 1015.8 |
| 20260830092605 | 82 | 90 | 0.0 | 7.0 | 0.00 | 0.76 | 0.00 | 80 | 1015.8 |
| 20260830092101 | 82 | 0 | 0.0 | 7.0 | 0.00 | 0.76 | 0.00 | 80 | 1015.9 |
| 20260830091606 | 82 | 348 | 1.0 | 7.0 | 0.00 | 0.76 | 0.00 | 80 | 1015.8 |
| 20260830091100 | 82 | 132 | 0.0 | 7.0 | 0.00 | 0.76 | 0.00 | 80 | 1015.9 |
| 20260830090604 | 82 | 144 | 0.0 | 3.0 | 0.00 | 0.76 | 0.00 | 80 | 1015.9 |
| 20260830090104 | 82 | 88 | 0.0 | 8.0 | 0.00 | 0.76 | 0.00 | 79 | 1015.9 |
| 20260830085605 | 82 | 0 | 1.0 | 9.0 | 0.00 | 0.76 | 0.00 | 79 | 1015.9 |
| 20260830085101 | 82 | 96 | 1.0 | 9.0 | 0.00 | 0.76 | 0.00 | 79 | 1016.0 |
| 20260830084604 | 82 | 0 | 3.0 | 9.0 | 0.00 | 0.76 | 0.00 | 79 | 1016.1 |
| 20260830084102 | 82 | 0 | 1.0 | 8.0 | 0.00 | 0.76 | 0.00 | 79 | 1016.1 |
| 20260830083601 | 82 | 96 | 0.0 | 8.0 | 0.00 | 0.76 | 0.00 | 79 | 1016.1 |
| 20260830083104 | 82 | 0 | 2.0 | 8.0 | 0.00 | 0.76 | 0.00 | 78 | 1016.1 |
| 20260830082559 | 82 | 90 | 2.0 | 7.0 | 0.00 | 0.76 | 0.00 | 78 | 1016.1 |
| 20260830082100 | 82 | 0 | 2.0 | 7.0 | 0.00 | 0.76 | 0.00 | 78 | 1016.1 |
| 20260830081616 | 82 | 91 | 0.0 | 7.0 | 0.00 | 0.76 | 0.00 | 78 | 1016.2 |
| 20260830081059 | 82 | 86 | 0.0 | 7.0 | 0.00 | 0.76 | 0.00 | 77 | 1016.2 |
| 20260830080603 | 82 | 109 | 1.0 | 4.0 | 0.00 | 0.76 | 0.00 | 77 | 1016.3 |
| 20260830080113 | 82 | 115 | 0.0 | 9.0 | 0.00 | 0.76 | 0.00 | 77 | 1016.3 |
| 20260830075601 | 82 | 0 | 0.0 | 9.0 | 0.00 | 0.76 | 0.00 | 77 | 1016.4 |
| 20260830075103 | 82 | 0 | 3.0 | 9.0 | 0.00 | 0.76 | 0.00 | 77 | 1016.6 |
| 20260830074609 | 82 | 105 | 1.0 | 6.0 | 0.00 | 0.76 | 0.00 | 77 | 1016.6 |
| 20260830074102 | 82 | 113 | 1.0 | 7.0 | 0.00 | 0.76 | 0.00 | 77 | 1016.6 |
| 20260830073604 | 82 | 0 | 1.0 | 7.0 | 0.00 | 0.76 | 0.00 | 77 | 1016.6 |
| 20260830073116 | 82 | 122 | 1.0 | 10.0 | 0.00 | 0.76 | 0.00 | 77 | 1016.5 |
| 20260830072559 | 82 | 202 | 3.0 | 10.0 | 0.00 | 0.76 | 0.00 | 76 | 1016.6 |
| 20260830072104 | 82 | 0 | 3.0 | 8.0 | 0.00 | 0.76 | 0.00 | 76 | 1016.6 |
| 20260830071607 | 82 | 82 | 0.0 | 8.0 | 0.00 | 0.76 | 0.00 | 76 | 1016.6 |
| 20260830071100 | 82 | 94 | 1.0 | 9.0 | 0.00 | 0.76 | 0.00 | 76 | 1016.5 |
| 20260830070559 | 82 | 106 | 1.0 | 9.0 | 0.00 | 0.76 | 0.00 | 76 | 1016.5 |
| 20260830070105 | 82 | 0 | 1.0 | 9.0 | 0.00 | 0.76 | 0.00 | 76 | 1016.6 |
| 20260830065601 | 82 | 79 | 1.0 | 9.0 | 0.00 | 0.76 | 0.00 | 76 | 1016.6 |
| 20260830065059 | 82 | 91 | 1.0 | 7.0 | 0.00 | 0.76 | 0.00 | 76 | 1016.7 |
| 20260830064637 | 82 | 0 | 1.0 | 8.0 | 0.00 | 0.76 | 0.00 | 75 | 1016.6 |
| 20260830064101 | 83 | 0 | 0.0 | 8.0 | 0.00 | 0.76 | 0.00 | 76 | 1016.7 |
| 20260830063603 | 83 | 72 | 1.0 | 9.0 | 0.00 | 0.76 | 0.00 | 75 | 1016.8 |
| 20260830063107 | 83 | 0 | 1.0 | 9.0 | 0.00 | 0.76 | 0.00 | 75 | 1016.9 |
| 20260830062559 | 83 | 121 | 4.0 | 9.0 | 0.00 | 0.76 | 0.00 | 75 | 1017.0 |
| 20260830062058 | 83 | 104 | 4.0 | 9.0 | 0.00 | 0.76 | 0.00 | 74 | 1017.1 |
| 20260830061628 | 83 | 124 | 3.0 | 9.0 | 0.00 | 0.76 | 0.00 | 74 | 1017.0 |
| 20260830061056 | 82 | 111 | 3.0 | 12.0 | 0.00 | 0.76 | 0.00 | 74 | 1017.1 |